Погода Чапаево

Погода Чапаево : погода сейчас, прогноз погоды и архив. Всё, что Вы хотите узнать о погоде Чапаево!

Поиск расширенной информации на нашем сайте:

Другие новости

Новости СМИ2

Главная страница сайта

Новости сайта

02.10.2013

Напоминаем, что на нашем новом сайте вы можете получить высокодетализированные прогнозы погоды по пунктам России, СНГ и мира (включающие важные для авиации метеовеличины, такие как направление и скорость ветра, видимость, явления погоды, количество и форма облачности, нижняя и верхняя граница облачности), а также ознакомиться с разнообразными материалами по авиационной метеорологии и подборкой полезных ссылок на эту тему.

Сайт Метеоцентр.Азия посвящён разработке технологий оптимизации авиаметеорологического обслуживания, включая проектирование и перспективное создание нескольких автоматизированных авиаметеорологических систем:
- система выпуска высокодетальных прогностических карт явлений погоды для нижнего воздушного пространства по России и ближнему зарубежью;
- система верификации прогнозов TAF (выпускаемых синоптиками официальных АМСГ РФ и ближнего зарубежья) и AUTOTAF (выпускаемых сайтом Метеоцентр.Азия) - выявление ошибок, онлайн-сопоставление с фактической погодой METAR, автоматическое внесение коррективов в прогнозы при резком отклонении фактической погоды от прогноза, подсчёт оправдываемости прогнозов по элементам и в целом;
- система обработки, анализа и отображения авиаметеорологической информации для применения провайдерами метеорологической информации.

Рекомендуем: Капсулы яблочный уксус - по низким ценам!

Погода Чапаево - сегодня

Время (UTC), дата Ветер
(°,м/с) 
Видим.   Явления Облачность Т
(°С)
Тd
(°С)
f(%) Тe
(°С)
Pmin
(гПа)
dP
(гПа)
Po
(мм)
O2
(г/м3)
Тmin Tmax R s Состояние
почвы
03 20.04.17 290 (З) 10 км  слаб. ливневой дождь  10/10 600 м кучево-дожд. 
[Cb cap]
+10.2 +9 92 +9  1009.5  1.5  756  292         
06 20.04.17 290 (З) 20000 м  {ливн. осадки}  10/10 600 м 
[Sc]
+9 +8 93 +8  1011.3  1.7  757  294  +9       
09 20.04.17 270 (З) 20000 м    8/8 600 м 
[Cu med, cong]
+13.2 +4.4 55 +12  1012  0.8  758  291           
12 20.04.17 290 (З) 20000 м    8/8 600 м 
[Sc]
+9.2 +4.2 71 +7  1014.4  2.3  759  295           
15 20.04.17 320 (СЗ) 20000 м    3/0 средняя 
[Ac lent]
+6.8 -0.3 61 +4  1016.6  2.2  761  299    +13.3     
18 20.04.17 320 (СЗ) н/о    ясно 
+2.7 -1.6 73 +1  1018.9  2.3  763  305    +13.3     
21 20.04.17 320 (СЗ) н/о    ясно 
+0 -3.4 78 -2  1019.9  764  308           
00 21.04.17 320 (СЗ) н/о    ясно 
-1.8 -4.6 81 -4  1019.5  -0.4  763  310           
03 21.04.17 320 (СЗ) 20000 м    3/0 верхняя 
[Ci fib]
-1.4 -4.8 78 -3  1020.9  1.4  764  310           
06 21.04.17 340 (С) 20000 м    3/0 верхняя 
[Ci fib]
+3.2 -5.6 52 +2  1021.3  0.4  765  305  -1.8         
09 21.04.17 360 (С) 20000 м    3/0 верхняя 
[Ci fib]
+6.2 -5.1 44 +5  1020.6  -0.7  764  302           
12 21.04.17 320 (СЗ) 20000 м    4/0 верхняя 
[Ci fib]
+8.1 -4.1 42 +7  1019.9  -0.7  764  299           
15 21.04.17 270 (З) 20000 м    6/0 средняя 
[Ac lent]
+7.8 -5 40 +9  1018.9  -1  763  299    +8.3       
18 21.04.17 тихо ()   н/о    8/8 600 м 
[Sc]
+4.2 +0.2 75 +4  1017.7  -1.2  762  302    +8.3       
21 21.04.17 тихо ()   н/о    10/10 600 м 
[Sc]
+3.2 -2.6 66 +3  1017.4  -0.3  762  304           
00 22.04.17 140 (ЮВ) н/о    10/10 600 м 
[Sc]
+4 -1.9 65 +5  1015.5  -1.9  760  302           
03 22.04.17 140 (ЮВ) 20000 м    10/10 600 м 
[Sc]
+5 -2.3 59 +4  1013.8  -1.7  759  301           
06 22.04.17 140 (ЮВ) 10 км  слаб. дождь  10/10 600 м 
[Ns]
+5.3 +0.6 72 +5  1009.8  -4  756  299  +3.2         
09 22.04.17 140 (ЮВ) 10 км  слаб. дождь  10/10 600 м 
[Ns]
+5.4 +4 91 +4  1005.2  -4.6  752  297           
12 22.04.17 270 (З) 20000 м  {дождь}  10/10 600 м 
[Sc]
+7.4 +5.2 86 +5  1003.6  -1.6  751  294           
15 22.04.17 250 (З) 20000 м    8/8 600 м 
[Sc]
+7.6 +4.6 81 +5  1003.6  0.1  751  294    +7.7     
18 22.04.17 250 (З) н/о    4/0 средняя 
[Ac lent]
+4.4 +3.2 92 +2  1005.4  1.7  753  298    +7.7     
21 22.04.17 270 (З) н/о    8/0 средняя 
[Ac und]
+5.9 +3.5 85 +3  1007  1.6  754  297           
00 23.04.17 270 (З) н/о    10/10 600 м 
[Sc]
+6 +3.6 85 +3  1009.2  2.2  755  297           
03 23.04.17 250 (З) 20000 м    6/0 средняя 
[Ac und]
+4.2 +2.7 90 +1  1012  2.8  758  300           
Время (UTC), дата Ветер
(°,м/с) 
Видим.   Явления Облачность Т
(°С)
Тd
(°С)
f(%) Тe
(°С)
Pmin
(гПа)
dP
(гПа)
Po
(мм)
O2
(г/м3)
Тmin Tmax R s Состояние
почвы

Для получения пояснительной информации подведите курсор к названию столбца.

ПОГОДА Чапаево - архив

Всё, что Вы хотите узнать о погоде Чапаево - удобно и подробно!

Выберите нужную дату (начиная с 1 января 2015* года) и нажмите кнопку "Найти".
Будут отображены архивные сводки погоды по пункту Чапаево, начиная с указанной даты.


Отображать данные в формате CSV (для использования в таблицах Excel)


Внимание! Наш архив погоды предназначен исключительно для личного некоммерческого использования в познавательных целях. Если Вам необходимы официальные справки о состоянии погоды (для производственных, юридических, коммерческих и т.п. целей), обращайтесь в органы Росгидромета.

*Примечание: данная дата относится к архиву по метеостанциям СССР (Россия, СНГ, Балтия).
Архив по метеостанциям Зарубежной Европы и Азии (кроме Китая) хранится 10 дней, по другим регионам земного шара (Китай, Африка, Америка, Австралия, Океания) - 1 день.

Чапаево - район местоположения метеостанции


Название, широта, долгота, высота метеостанции:
Чапаево 50.2°ш. 51.2°д. 17 м над ур. моря [Казахстан]

Дополнительная информация

В oтличие oт бoльшинства пoгoдных сайтoв мы публикуем пoдрoбную метеoинфoрмацию в детальнoм прoфессиoнальнoм фoрмате.

Характеристики температуры и влажнoсти вoздуха измеряются на высoте 2 м в тени вдали oт зданий и деревьев.
Скoрoсть ветра измеряется на высoте 10 м (на урoвне рoста челoвека скoрoсть ветра ниже в 1.5-2 раза). Если метеoстанция нахoдится в гoрoде или в лесу, тo скoрoсть ветра занижена на 2-4 м/с пo сравнению с oткрытым местoм. Скoрoсть ветра над акватoриями крупных рек и oзёр, а также на вершинах хoлмoв на 2-5 м/с выше, чем в oбычных услoвиях.
Атмoсфернoе давление в разных тoчках местнoсти мoжет значительнo oтличаться oт давления на метеoстанции, в зависимoсти oт услoвий рельефа (при пoдъёме на 10 м давление пoнижается примернo на 1 мм рт.ст.).